User: anonymous   Login
Location: Unspecified
(0.0000°N, 0.0000°E)
Time: 17:33:39
(UTC+00:00)
Language:

Meteor 3-6 - Orbit

View from above orbital plane
View from above orbital plane
View from above satellite
View from above satellite

Ground track
Ground track

The orbit data is extracted from the following two-line orbital elements,

1 22969U 94003A   18170.89267956 -.00000064 +00000-0 -19871-3 0  9994
2 22969 082.5617 348.0119 0014018 309.9513 050.0377 13.16987378172969
Epoch (UTC): 19 June 2018 21:25:27
Eccentricity: 0.0014018
inclination: 82.5617°
perigee height: 1185 km
apogee height: 1207 km
right ascension of ascending node: 348.0119°
argument of perigee: 309.9513°
revolutions per day: 13.16987378
mean anomaly at epoch: 50.0377°
orbit number at epoch: 17296

The dashed part of the orbit path shows where the satellite is in the earth's shadow,  

DLR